GAD MUNICIPALIDAD DE AMBATO;;;;;;;
Reporte Solmaforo desde 01/04/2023 hasta 24/04/2023;;;;;;;
C�digo;Fecha;IUV;;IUV Completo;;;
2733936;01/04/2023 05:01:21;0;;0;;;
2733938;01/04/2023 05:02:21;0;;0;;;
2733940;01/04/2023 05:03:21;0;;0;;;
2733942;01/04/2023 05:04:21;0;;0;;;
2733944;01/04/2023 05:05:21;0;;0;;;
2733946;01/04/2023 05:06:21;0;;0;;;
2733949;01/04/2023 05:08:21;0;;0;;;
2733951;01/04/2023 05:09:21;0;;0;;;
2733953;01/04/2023 05:10:21;0;;0;;;
2733955;01/04/2023 05:11:21;0;;0;;;
2733957;01/04/2023 05:12:21;0;;0;;;
2733959;01/04/2023 05:13:21;0;;0;;;
2733962;01/04/2023 05:15:21;0;;0;;;
2733964;01/04/2023 05:16:21;0;;0;;;
2733966;01/04/2023 05:17:21;0;;0;;;
2733968;01/04/2023 05:18:21;0;;0;;;
2733970;01/04/2023 05:19:21;0;;0;;;
2733972;01/04/2023 05:20:21;0;;0;;;
2733975;01/04/2023 05:22:21;0;;0;;;
2733977;01/04/2023 05:23:21;0;;0;;;
2733979;01/04/2023 05:24:21;0;;0;;;
2733981;01/04/2023 05:25:21;0;;0;;;
2733983;01/04/2023 05:26:21;0;;0;;;
2733985;01/04/2023 05:27:21;0;;0;;;
2733988;01/04/2023 05:29:21;0;;0;;;
2733990;01/04/2023 05:30:21;0;;0;;;
2733992;01/04/2023 05:31:21;0;;0;;;
2733994;01/04/2023 05:32:21;0;;0;;;
2733996;01/04/2023 05:33:21;0;;0;;;
2733998;01/04/2023 05:34:21;0;;0;;;
2734001;01/04/2023 05:36:21;0;;0;;;
2734003;01/04/2023 05:37:21;0;;0;;;
2734005;01/04/2023 05:38:21;0;;0;;;
2734007;01/04/2023 05:39:21;0;;0;;;
2734009;01/04/2023 05:40:21;0;;0;;;
2734011;01/04/2023 05:41:21;0;;0;;;
2734014;01/04/2023 05:43:21;0;;0;;;
2734016;01/04/2023 05:44:21;0;;0;;;
2734018;01/04/2023 05:45:21;0;;0;;;
2734020;01/04/2023 05:46:21;0;;0;;;
2734022;01/04/2023 05:47:21;0;;0;;;
2734024;01/04/2023 05:48:21;0;;0;;;
2734027;01/04/2023 05:50:21;0;;0;;;
2734029;01/04/2023 05:51:21;0;;0;;;
2734031;01/04/2023 05:52:21;0;;0;;;
2734033;01/04/2023 05:53:21;0;;0;;;
2734035;01/04/2023 05:54:21;0;;0;;;
2734037;01/04/2023 05:55:21;0;;0;;;
2734040;01/04/2023 05:57:21;0;;0;;;
2734042;01/04/2023 05:58:21;0;;0,0004;;;
2734044;01/04/2023 05:59:21;0;;0,0004;;;
2734046;01/04/2023 06:00:21;0;;0,0004;;;
2734048;01/04/2023 06:01:21;0;;0,0008;;;
2734050;01/04/2023 06:02:21;0;;0,0012;;;
2734053;01/04/2023 06:04:21;0;;0,0024;;;
2734055;01/04/2023 06:05:21;0;;0,0032;;;
2734057;01/04/2023 06:06:21;0;;0,004;;;
2734059;01/04/2023 06:07:21;0;;0,0052;;;
2734061;01/04/2023 06:08:21;0;;0,0068;;;
2734063;01/04/2023 06:09:21;0;;0,008;;;
2734066;01/04/2023 06:11:21;0;;0,0116;;;
2734068;01/04/2023 06:12:21;0;;0,0136;;;
2734070;01/04/2023 06:13:21;0;;0,016;;;
2734072;01/04/2023 06:14:21;0;;0,0188;;;
2734074;01/04/2023 06:15:21;0;;0,0208;;;
2734076;01/04/2023 06:16:21;0;;0,0232;;;
2734079;01/04/2023 06:18:21;0;;0,0284;;;
2734081;01/04/2023 06:19:21;0;;0,032;;;
2734083;01/04/2023 06:20:21;0;;0,0364;;;
2734085;01/04/2023 06:21:21;0;;0,0416;;;
2734087;01/04/2023 06:22:21;0;;0,0472;;;
2734089;01/04/2023 06:23:21;0;;0,0532;;;
2734092;01/04/2023 06:25:21;0;;0,0676;;;
2734094;01/04/2023 06:26:21;0;;0,0764;;;
2734096;01/04/2023 06:27:21;0;;0,0864;;;
2734098;01/04/2023 06:28:21;0;;0,0968;;;
2734100;01/04/2023 06:29:21;0;;0,1076;;;
2734102;01/04/2023 06:30:21;0;;0,1212;;;
2734105;01/04/2023 06:32:21;0;;0,1624;;;
2734107;01/04/2023 06:33:21;0;;0,186;;;
2734109;01/04/2023 06:34:21;0;;0,204;;;
2734111;01/04/2023 06:35:21;0;;0,212;;;
2734113;01/04/2023 06:36:21;0;;0,2232;;;
2734115;01/04/2023 06:37:21;0;;0,2424;;;
2734118;01/04/2023 06:39:21;0;;0,272;;;
2734120;01/04/2023 06:40:21;0;;0,2784;;;
2734122;01/04/2023 06:41:21;0;;0,2844;;;
2734124;01/04/2023 06:42:21;0;;0,2948;;;
2734126;01/04/2023 06:43:21;0;;0,306;;;
2734128;01/04/2023 06:44:21;0;;0,3144;;;
2734131;01/04/2023 06:46:21;0;;0,3192;;;
2734133;01/04/2023 06:47:21;0;;0,3156;;;
2734135;01/04/2023 06:48:21;0;;0,312;;;
2734137;01/04/2023 06:49:21;0;;0,3112;;;
2734139;01/04/2023 06:50:21;0;;0,3116;;;
2734141;01/04/2023 06:51:21;0;;0,32;;;
2734144;01/04/2023 06:53:21;0;;0,3408;;;
2734146;01/04/2023 06:54:21;0;;0,3612;;;
2734148;01/04/2023 06:55:21;0;;0,38;;;
2734150;01/04/2023 06:56:21;0;;0,3928;;;
2734152;01/04/2023 06:57:21;0;;0,4036;;;
2734154;01/04/2023 06:58:21;0;;0,4232;;;
2734157;01/04/2023 07:00:21;0;;0,4848;;;
2734159;01/04/2023 07:01:21;1;;0,5148;;;
2734161;01/04/2023 07:02:21;1;;0,5424;;;
2734163;01/04/2023 07:03:21;1;;0,5648;;;
2734165;01/04/2023 07:04:21;1;;0,578;;;
2734167;01/04/2023 07:05:21;1;;0,5804;;;
2734170;01/04/2023 07:07:21;1;;0,5792;;;
2734172;01/04/2023 07:08:21;1;;0,5788;;;
2734174;01/04/2023 07:09:21;1;;0,5888;;;
2734176;01/04/2023 07:10:21;1;;0,6;;;
2734178;01/04/2023 07:11:21;1;;0,6044;;;
2734180;01/04/2023 07:12:21;1;;0,598;;;
2734183;01/04/2023 07:14:21;1;;0,5472;;;
2734185;01/04/2023 07:15:21;1;;0,5324;;;
2734187;01/04/2023 07:16:21;1;;0,5428;;;
2734189;01/04/2023 07:17:21;1;;0,5616;;;
2734191;01/04/2023 07:18:21;1;;0,5804;;;
2734193;01/04/2023 07:19:21;1;;0,6164;;;
2734196;01/04/2023 07:21:21;1;;0,6972;;;
2734198;01/04/2023 07:22:21;1;;0,7292;;;
2734200;01/04/2023 07:23:21;1;;0,7484;;;
2734202;01/04/2023 07:24:21;1;;0,7472;;;
2734204;01/04/2023 07:25:21;1;;0,7388;;;
2734206;01/04/2023 07:26:21;1;;0,744;;;
2734209;01/04/2023 07:28:21;1;;0,8004;;;
2734211;01/04/2023 07:29:21;1;;0,8748;;;
2734213;01/04/2023 07:30:21;1;;0,9204;;;
2734215;01/04/2023 07:31:21;1;;0,9308;;;
2734217;01/04/2023 07:32:21;1;;0,9404;;;
2734219;01/04/2023 07:33:21;1;;0,9336;;;
2734222;01/04/2023 07:35:21;2;;1,7128;;;
2734224;01/04/2023 07:36:21;2;;1,6304;;;
2734226;01/04/2023 07:37:21;1;;1,2184;;;
2734228;01/04/2023 07:38:21;1;;1,1812;;;
2734230;01/04/2023 07:39:21;1;;1,1532;;;
2734232;01/04/2023 07:40:21;1;;1,1596;;;
2734235;01/04/2023 07:42:21;1;;1,1772;;;
2734237;01/04/2023 07:43:21;1;;1,4056;;;
2734239;01/04/2023 07:44:21;2;;1,672;;;
2734241;01/04/2023 07:45:21;1;;1,3544;;;
2734243;01/04/2023 07:46:21;1;;1,3124;;;
2734245;01/04/2023 07:47:21;1;;1,2864;;;
2734248;01/04/2023 07:49:21;1;;1,4688;;;
2734250;01/04/2023 07:50:21;2;;1,5168;;;
2734252;01/04/2023 07:51:21;2;;1,5168;;;
2734254;01/04/2023 07:52:21;2;;1,5936;;;
2734256;01/04/2023 07:53:21;2;;1,574;;;
2734258;01/04/2023 07:54:21;2;;1,5368;;;
2734261;01/04/2023 07:56:21;1;;1,246;;;
2734263;01/04/2023 07:57:21;1;;1,11;;;
2734265;01/04/2023 07:58:21;1;;1,0332;;;
2734267;01/04/2023 07:59:21;1;;0,9712;;;
2734269;01/04/2023 08:00:21;1;;0,936;;;
2734271;01/04/2023 08:01:21;1;;0,9192;;;
2734274;01/04/2023 08:03:21;1;;0,9324;;;
2734276;01/04/2023 08:04:21;1;;0,99;;;
2734278;01/04/2023 08:05:21;1;;1,036;;;
2734280;01/04/2023 08:06:21;1;;1,0224;;;
2734282;01/04/2023 08:07:21;1;;0,9972;;;
2734284;01/04/2023 08:08:21;1;;0,95;;;
2734287;01/04/2023 08:10:21;1;;0,932;;;
2734289;01/04/2023 08:11:21;1;;0,9072;;;
2734291;01/04/2023 08:12:20;1;;0,9184;;;
2734293;01/04/2023 08:13:21;1;;0,96;;;
2734295;01/04/2023 08:14:21;1;;1,0288;;;
2734297;01/04/2023 08:15:21;1;;1,0896;;;
2734300;01/04/2023 08:17:21;1;;1,224;;;
2734302;01/04/2023 08:18:21;1;;1,3072;;;
2734304;01/04/2023 08:19:21;1;;1,3924;;;
2734306;01/04/2023 08:20:21;2;;1,5184;;;
2734308;01/04/2023 08:21:21;2;;1,6352;;;
2734310;01/04/2023 08:22:21;2;;1,76;;;
2734313;01/04/2023 08:24:21;2;;2,0456;;;
2734315;01/04/2023 08:25:21;2;;2,1624;;;
2734317;01/04/2023 08:26:21;2;;2,2696;;;
2734319;01/04/2023 08:27:21;3;;2,736;;;
2734321;01/04/2023 08:28:21;3;;2,7128;;;
2734323;01/04/2023 08:29:21;2;;2,3452;;;
2734326;01/04/2023 08:31:21;3;;2,5632;;;
2734328;01/04/2023 08:32:21;2;;1,9708;;;
2734330;01/04/2023 08:33:21;2;;1,9276;;;
2734332;01/04/2023 08:34:21;2;;1,8308;;;
2734334;01/04/2023 08:35:21;2;;1,8056;;;
2734336;01/04/2023 08:36:21;2;;1,8728;;;
2734339;01/04/2023 08:38:21;2;;1,9036;;;
2734341;01/04/2023 08:39:21;2;;1,8572;;;
2734343;01/04/2023 08:40:21;2;;1,8;;;
2734345;01/04/2023 08:41:21;2;;1,7276;;;
2734347;01/04/2023 08:42:21;2;;1,6696;;;
2734349;01/04/2023 08:43:21;2;;1,6564;;;
2734352;01/04/2023 08:45:21;2;;2,012;;;
2734354;01/04/2023 08:46:21;2;;1,922;;;
2734356;01/04/2023 08:47:21;2;;1,9892;;;
2734358;01/04/2023 08:48:21;2;;2,2804;;;
2734360;01/04/2023 08:49:21;3;;3,238;;;
2734362;01/04/2023 08:50:21;3;;3,23;;;
2734365;01/04/2023 08:52:21;2;;2,3316;;;
2734367;01/04/2023 08:53:21;2;;2,3588;;;
2734369;01/04/2023 08:54:21;2;;2,1368;;;
2734371;01/04/2023 08:55:20;2;;2,0308;;;
2734373;01/04/2023 08:56:21;2;;2,0512;;;
2734375;01/04/2023 08:57:21;2;;2,1156;;;
2734378;01/04/2023 08:59:21;2;;2,2352;;;
2734380;01/04/2023 09:00:21;2;;2,3848;;;
2734382;01/04/2023 09:01:21;2;;2,4328;;;
2734384;01/04/2023 09:02:21;2;;2,3044;;;
2734386;01/04/2023 09:03:21;3;;2,7352;;;
2734388;01/04/2023 09:04:21;3;;3,1152;;;
2734391;01/04/2023 09:06:21;3;;3,0488;;;
2734393;01/04/2023 09:07:21;3;;2,5464;;;
2734395;01/04/2023 09:08:21;2;;2,472;;;
2734397;01/04/2023 09:09:21;2;;2,4028;;;
2734399;01/04/2023 09:10:21;2;;2,3556;;;
2734401;01/04/2023 09:11:21;2;;2,3536;;;
2734404;01/04/2023 09:13:20;4;;3,6536;;;
2734406;01/04/2023 09:14:21;3;;2,9376;;;
2734408;01/04/2023 09:15:21;3;;2,6744;;;
2734410;01/04/2023 09:16:21;3;;2,6552;;;
2734412;01/04/2023 09:17:21;3;;3,2384;;;
2734414;01/04/2023 09:18:21;4;;3,6832;;;
2734417;01/04/2023 09:20:21;6;;5,5724;;;
2734419;01/04/2023 09:21:21;5;;4,862;;;
2734421;01/04/2023 09:22:21;3;;3,1416;;;
2734423;01/04/2023 09:23:21;4;;4,1512;;;
2734425;01/04/2023 09:24:21;5;;5,2816;;;
2734427;01/04/2023 09:25:21;6;;6,1348;;;
2734430;01/04/2023 09:27:21;3;;3,2164;;;
2734432;01/04/2023 09:28:21;4;;3,6384;;;
2734434;01/04/2023 09:29:21;5;;4,5516;;;
2734436;01/04/2023 09:30:21;3;;2,9388;;;
2734438;01/04/2023 09:31:21;4;;4,3244;;;
2734440;01/04/2023 09:32:21;6;;6,3596;;;
2734443;01/04/2023 09:34:21;6;;5,6308;;;
2734445;01/04/2023 09:35:21;7;;7,026;;;
2734447;01/04/2023 09:36:21;3;;3,1444;;;
2734449;01/04/2023 09:37:21;6;;5,6964;;;
2734451;01/04/2023 09:38:21;6;;6,282;;;
2734453;01/04/2023 09:39:21;5;;5,4536;;;
2734456;01/04/2023 09:41:21;5;;4,7292;;;
2734458;01/04/2023 09:42:20;5;;4,7084;;;
2734460;01/04/2023 09:43:21;5;;4,7116;;;
2734462;01/04/2023 09:44:21;5;;4,8276;;;
2734464;01/04/2023 09:45:21;6;;6,4872;;;
2734466;01/04/2023 09:46:21;6;;5,8752;;;
2734469;01/04/2023 09:48:21;5;;5,4316;;;
2734471;01/04/2023 09:49:20;6;;5,9752;;;
2734473;01/04/2023 09:50:21;4;;4,1844;;;
2734475;01/04/2023 09:51:20;4;;3,9968;;;
2734477;01/04/2023 09:52:21;4;;3,5036;;;
2734479;01/04/2023 09:53:21;3;;2,95;;;
2734482;01/04/2023 09:55:21;3;;3,2848;;;
2734484;01/04/2023 09:56:21;6;;5,8564;;;
2734486;01/04/2023 09:57:21;7;;7,2804;;;
2734488;01/04/2023 09:58:20;8;;7,7084;;;
2734490;01/04/2023 09:59:21;7;;7,3536;;;
2734492;01/04/2023 10:00:21;8;;7,6988;;;
2734495;01/04/2023 10:02:21;8;;7,74;;;
2734497;01/04/2023 10:03:21;8;;7,9344;;;
2734499;01/04/2023 10:04:21;8;;7,7388;;;
2734501;01/04/2023 10:05:21;8;;8,142;;;
2734503;01/04/2023 10:06:21;8;;7,6764;;;
2734505;01/04/2023 10:07:20;7;;6,5848;;;
2734508;01/04/2023 10:09:21;7;;6,7088;;;
2734510;01/04/2023 10:10:21;5;;5,0464;;;
2734512;01/04/2023 10:11:21;6;;5,5368;;;
2734514;01/04/2023 10:12:21;4;;4,3016;;;
2734516;01/04/2023 10:13:21;4;;4,4504;;;
2734518;01/04/2023 10:14:21;3;;3,4692;;;
2734521;01/04/2023 10:16:20;3;;2,9868;;;
2734523;01/04/2023 10:17:21;3;;2,6552;;;
2734525;01/04/2023 10:18:21;3;;2,692;;;
2734527;01/04/2023 10:19:21;4;;3,7564;;;
2734529;01/04/2023 10:20:21;7;;6,5976;;;
2734531;01/04/2023 10:21:21;5;;4,6688;;;
2734534;01/04/2023 10:23:21;7;;6,5328;;;
2734536;01/04/2023 10:24:21;5;;4,8512;;;
2734538;01/04/2023 10:25:21;3;;3,4832;;;
2734540;01/04/2023 10:26:21;3;;2,9588;;;
2734542;01/04/2023 10:27:21;5;;4,9188;;;
2734544;01/04/2023 10:28:21;6;;6,05;;;
2734547;01/04/2023 10:30:21;5;;4,7632;;;
2734549;01/04/2023 10:31:21;4;;4,3364;;;
2734551;01/04/2023 10:32:21;7;;7,0672;;;
2734553;01/04/2023 10:33:21;6;;6,3692;;;
2734555;01/04/2023 10:34:21;4;;4,4424;;;
2734557;01/04/2023 10:35:21;3;;3,3556;;;
2734560;01/04/2023 10:37:21;4;;3,5848;;;
2734562;01/04/2023 10:38:21;4;;3,9388;;;
2734564;01/04/2023 10:39:21;5;;5,2628;;;
2734566;01/04/2023 10:40:21;4;;3,9432;;;
2734568;01/04/2023 10:41:20;5;;4,9932;;;
2734570;01/04/2023 10:42:21;6;;6,0584;;;
2734573;01/04/2023 10:44:21;7;;7,1172;;;
2734575;01/04/2023 10:45:21;7;;7,4488;;;
2734577;01/04/2023 10:46:21;8;;8,1236;;;
2734579;01/04/2023 10:47:21;9;;9,1092;;;
2734581;01/04/2023 10:48:21;8;;8,1984;;;
2734583;01/04/2023 10:49:21;7;;7,4428;;;
2734586;01/04/2023 10:51:21;8;;7,6744;;;
2734588;01/04/2023 10:52:21;9;;8,9696;;;
2734590;01/04/2023 10:53:21;8;;8,2996;;;
2734592;01/04/2023 10:54:21;8;;8,234;;;
2734594;01/04/2023 10:55:21;5;;4,9452;;;
2734596;01/04/2023 10:56:21;4;;3,592;;;
2734599;01/04/2023 10:58:21;3;;2,8552;;;
2734601;01/04/2023 10:59:21;5;;5,4036;;;
2734603;01/04/2023 11:00:21;8;;7,7384;;;
2734605;01/04/2023 11:01:21;9;;8,7024;;;
2734607;01/04/2023 11:02:21;8;;8,03;;;
2734609;01/04/2023 11:03:21;7;;6,728;;;
2734612;01/04/2023 11:05:21;4;;3,8908;;;
2734614;01/04/2023 11:06:21;4;;4,178;;;
2734616;01/04/2023 11:07:21;8;;8,4444;;;
2734618;01/04/2023 11:08:20;8;;7,9956;;;
2734620;01/04/2023 11:09:21;7;;6,5024;;;
2734622;01/04/2023 11:10:20;7;;7,3048;;;
2734625;01/04/2023 11:12:21;7;;7,1392;;;
2734627;01/04/2023 11:13:21;9;;8,7628;;;
2734629;01/04/2023 11:14:21;7;;6,5804;;;
2734631;01/04/2023 11:15:21;5;;5,0012;;;
2734633;01/04/2023 11:16:21;7;;6,5596;;;
2734635;01/04/2023 11:17:21;7;;6,7428;;;
2734638;01/04/2023 11:19:21;5;;4,7;;;
2734640;01/04/2023 11:20:21;7;;6,744;;;
2734642;01/04/2023 11:21:21;5;;5,464;;;
2734644;01/04/2023 11:22:21;7;;6,5548;;;
2734646;01/04/2023 11:23:21;5;;4,5504;;;
2734648;01/04/2023 11:24:21;3;;3,4504;;;
2734651;01/04/2023 11:26:21;4;;3,742;;;
2734653;01/04/2023 11:27:21;4;;4,0324;;;
2734655;01/04/2023 11:28:21;4;;4,0424;;;
2734657;01/04/2023 11:29:21;4;;3,8636;;;
2734659;01/04/2023 11:30:21;4;;3,7696;;;
2734661;01/04/2023 11:31:21;4;;3,6136;;;
2734664;01/04/2023 11:33:21;3;;3,274;;;
2734666;01/04/2023 11:34:21;3;;3,1448;;;
2734668;01/04/2023 11:35:21;3;;3,0548;;;
2734670;01/04/2023 11:36:21;3;;2,9812;;;
2734672;01/04/2023 11:37:21;3;;2,9256;;;
2734674;01/04/2023 11:38:21;3;;2,8856;;;
2734677;01/04/2023 11:40:21;3;;2,8512;;;
2734679;01/04/2023 11:41:21;3;;2,8304;;;
2734681;01/04/2023 11:42:21;3;;2,7936;;;
2734683;01/04/2023 11:43:21;3;;2,7396;;;
2734685;01/04/2023 11:44:21;3;;2,6844;;;
2734687;01/04/2023 11:45:21;3;;2,622;;;
2734690;01/04/2023 11:47:21;2;;2,4792;;;
2734692;01/04/2023 11:48:21;2;;2,4256;;;
2734694;01/04/2023 11:49:21;2;;2,4032;;;
2734696;01/04/2023 11:50:21;2;;2,4136;;;
2734698;01/04/2023 11:51:21;2;;2,452;;;
2734700;01/04/2023 11:52:21;3;;2,5288;;;
2734703;01/04/2023 11:54:21;3;;2,66;;;
2734705;01/04/2023 11:55:21;3;;2,6092;;;
2734707;01/04/2023 11:56:21;2;;2,4988;;;
2734709;01/04/2023 11:57:21;2;;2,3872;;;
2734711;01/04/2023 11:58:21;2;;2,2868;;;
2734713;01/04/2023 11:59:21;2;;2,1844;;;
2734716;01/04/2023 12:01:21;2;;2,0132;;;
2734718;01/04/2023 12:02:20;2;;1,9572;;;
2734720;01/04/2023 12:03:21;2;;1,9308;;;
2734722;01/04/2023 12:04:20;2;;1,9344;;;
2734724;01/04/2023 12:05:21;2;;1,9492;;;
2734726;01/04/2023 12:06:21;2;;1,9632;;;
2734729;01/04/2023 12:08:21;2;;2,032;;;
2734731;01/04/2023 12:09:21;2;;2,0876;;;
2734733;01/04/2023 12:10:21;2;;2,1392;;;
2734735;01/04/2023 12:11:20;2;;2,1568;;;
2734737;01/04/2023 12:12:21;2;;2,1204;;;
2734739;01/04/2023 12:13:21;2;;2,0816;;;
2734742;01/04/2023 12:15:21;2;;2,0808;;;
2734744;01/04/2023 12:16:21;2;;2,0904;;;
2734746;01/04/2023 12:17:21;2;;2,1068;;;
2734748;01/04/2023 12:18:20;2;;2,126;;;
2734750;01/04/2023 12:19:21;2;;2,164;;;
2734752;01/04/2023 12:20:21;2;;2,2096;;;
2734755;01/04/2023 12:22:21;2;;2,316;;;
2734757;01/04/2023 12:23:21;2;;2,3284;;;
2734759;01/04/2023 12:24:21;2;;2,312;;;
2734761;01/04/2023 12:25:21;2;;2,2744;;;
2734763;01/04/2023 12:26:21;2;;2,2244;;;
2734765;01/04/2023 12:27:21;2;;2,1556;;;
2734768;01/04/2023 12:29:21;2;;2,0256;;;
2734770;01/04/2023 12:30:21;2;;1,9584;;;
2734772;01/04/2023 12:31:21;2;;1,8956;;;
2734774;01/04/2023 12:32:21;2;;1,854;;;
2734776;01/04/2023 12:33:21;2;;1,8248;;;
2734778;01/04/2023 12:34:21;2;;1,8048;;;
2734781;01/04/2023 12:36:21;2;;1,8212;;;
2734783;01/04/2023 12:37:21;2;;1,874;;;
2734785;01/04/2023 12:38:21;2;;1,9564;;;
2734787;01/04/2023 12:39:21;2;;2,0716;;;
2734789;01/04/2023 12:40:21;2;;2,1892;;;
2734791;01/04/2023 12:41:21;2;;2,2172;;;
2734794;01/04/2023 12:43:21;2;;2,1688;;;
2734796;01/04/2023 12:44:21;2;;2,1384;;;
2734798;01/04/2023 12:45:20;2;;2,1016;;;
2734800;01/04/2023 12:46:21;2;;2,008;;;
2734802;01/04/2023 12:47:20;2;;1,8768;;;
2734804;01/04/2023 12:48:21;2;;1,7472;;;
2734807;01/04/2023 12:50:21;2;;1,6124;;;
2734809;01/04/2023 12:51:21;2;;1,6144;;;
2734811;01/04/2023 12:52:21;2;;1,6332;;;
2734813;01/04/2023 12:53:21;2;;1,6504;;;
2734815;01/04/2023 12:54:21;2;;1,65;;;
2734817;01/04/2023 12:55:21;2;;1,6368;;;
2734820;01/04/2023 12:57:21;2;;1,5752;;;
2734822;01/04/2023 12:58:21;2;;1,566;;;
2734824;01/04/2023 12:59:21;2;;1,578;;;
2734826;01/04/2023 13:00:21;2;;1,602;;;
2734828;01/04/2023 13:01:21;2;;1,6484;;;
2734830;01/04/2023 13:02:21;2;;1,708;;;
2734833;01/04/2023 13:04:21;2;;1,8216;;;
2734835;01/04/2023 13:05:21;2;;1,8568;;;
2734837;01/04/2023 13:06:21;2;;1,8784;;;
2734839;01/04/2023 13:07:21;2;;1,878;;;
2734841;01/04/2023 13:08:21;2;;1,8532;;;
2734843;01/04/2023 13:09:21;2;;1,8224;;;
2734846;01/04/2023 13:11:21;2;;1,7736;;;
2734848;01/04/2023 13:12:21;2;;1,7588;;;
2734850;01/04/2023 13:13:21;2;;1,7428;;;
2734852;01/04/2023 13:14:21;2;;1,7244;;;
2734854;01/04/2023 13:15:21;2;;1,6972;;;
2734856;01/04/2023 13:16:21;2;;1,6824;;;
2734859;01/04/2023 13:18:21;2;;1,67;;;
2734861;01/04/2023 13:19:21;2;;1,662;;;
2734863;01/04/2023 13:20:21;2;;1,63;;;
2734865;01/04/2023 13:21:20;2;;1,5876;;;
2734867;01/04/2023 13:22:21;2;;1,5476;;;
2734869;01/04/2023 13:23:21;2;;1,5204;;;
2734872;01/04/2023 13:25:21;1;;1,4716;;;
2734874;01/04/2023 13:26:21;1;;1,4568;;;
2734876;01/04/2023 13:27:21;1;;1,4444;;;
2734878;01/04/2023 13:28:20;1;;1,4392;;;
2734880;01/04/2023 13:29:21;1;;1,4512;;;
2734882;01/04/2023 13:30:21;1;;1,4876;;;
2734885;01/04/2023 13:32:21;2;;1,5788;;;
2734887;01/04/2023 13:33:21;2;;1,5964;;;
2734889;01/04/2023 13:34:21;2;;1,596;;;
2734891;01/04/2023 13:35:21;2;;1,5844;;;
2734893;01/04/2023 13:36:21;2;;1,5704;;;
2734895;01/04/2023 13:37:21;2;;1,5452;;;
2734898;01/04/2023 13:39:21;1;;1,4864;;;
2734900;01/04/2023 13:40:21;1;;1,482;;;
2734902;01/04/2023 13:41:21;2;;1,5048;;;
2734904;01/04/2023 13:42:21;2;;1,5508;;;
2734906;01/04/2023 13:43:21;2;;1,6004;;;
2734908;01/04/2023 13:44:21;2;;1,6452;;;
2734911;01/04/2023 13:46:20;2;;1,7516;;;
2734913;01/04/2023 13:47:21;2;;1,8184;;;
2734915;01/04/2023 13:48:21;2;;1,8844;;;
2734917;01/04/2023 13:49:21;2;;1,9324;;;
2734919;01/04/2023 13:50:21;2;;1,9436;;;
2734921;01/04/2023 13:51:21;2;;1,9224;;;
2734924;01/04/2023 13:53:21;2;;1,87;;;
2734926;01/04/2023 13:54:21;2;;1,8516;;;
2734928;01/04/2023 13:55:20;2;;1,8316;;;
2734930;01/04/2023 13:56:21;2;;1,8016;;;
2734932;01/04/2023 13:57:21;2;;1,7624;;;
2734934;01/04/2023 13:58:21;2;;1,7176;;;
2734937;01/04/2023 14:00:21;2;;1,6212;;;
2734939;01/04/2023 14:01:21;2;;1,5952;;;
2734941;01/04/2023 14:02:21;2;;1,5816;;;
2734943;01/04/2023 14:03:21;2;;1,5764;;;
2734945;01/04/2023 14:04:20;2;;1,5852;;;
2734947;01/04/2023 14:05:21;2;;1,6076;;;
2734950;01/04/2023 14:07:21;2;;1,69;;;
2734952;01/04/2023 14:08:21;2;;1,7636;;;
2734954;01/04/2023 14:09:21;2;;1,8612;;;
2734956;01/04/2023 14:10:21;2;;1,978;;;
2734958;01/04/2023 14:11:21;2;;2,1016;;;
2734960;01/04/2023 14:12:21;2;;2,2244;;;
2734963;01/04/2023 14:14:21;2;;2,4168;;;
2734965;01/04/2023 14:15:20;3;;2,6008;;;
2734967;01/04/2023 14:16:21;3;;3,3616;;;
2734969;01/04/2023 14:17:21;3;;2,8508;;;
2734971;01/04/2023 14:18:21;3;;2,6056;;;
2734973;01/04/2023 14:19:21;2;;2,4116;;;
2734976;01/04/2023 14:21:21;2;;2,2428;;;
2734978;01/04/2023 14:22:20;2;;2,2068;;;
2734980;01/04/2023 14:23:21;2;;2,2032;;;
2734982;01/04/2023 14:24:21;2;;2,2024;;;
2734984;01/04/2023 14:25:21;2;;2,2108;;;
2734986;01/04/2023 14:26:21;2;;2,228;;;
2734989;01/04/2023 14:28:21;2;;2,336;;;
2734991;01/04/2023 14:29:20;2;;2,3504;;;
2734993;01/04/2023 14:30:21;2;;2,3748;;;
2734995;01/04/2023 14:31:20;2;;2,4144;;;
2734997;01/04/2023 14:32:21;2;;2,4788;;;
2734999;01/04/2023 14:33:20;3;;2,5604;;;
2735002;01/04/2023 14:35:21;3;;2,7408;;;
2735004;01/04/2023 14:36:21;3;;2,822;;;
2735006;01/04/2023 14:37:21;3;;2,8988;;;
2735008;01/04/2023 14:38:20;3;;3,3676;;;
2735010;01/04/2023 14:39:21;4;;3,6804;;;
2735012;01/04/2023 14:40:21;3;;3,2496;;;
2735015;01/04/2023 14:42:20;3;;2,9156;;;
2735017;01/04/2023 14:43:21;3;;2,83;;;
2735019;01/04/2023 14:44:21;3;;2,8828;;;
2735021;01/04/2023 14:45:21;3;;2,9912;;;
2735023;01/04/2023 14:46:21;3;;3,1404;;;
2735025;01/04/2023 14:47:20;3;;3,2552;;;
2735028;01/04/2023 14:49:21;3;;3,228;;;
2735030;01/04/2023 14:50:21;3;;2,9244;;;
2735032;01/04/2023 14:51:20;3;;2,7324;;;
2735034;01/04/2023 14:52:21;3;;2,608;;;
2735036;01/04/2023 14:53:21;3;;2,5132;;;
2735038;01/04/2023 14:54:21;2;;2,442;;;
2735041;01/04/2023 14:56:21;2;;2,4344;;;
2735043;01/04/2023 14:57:21;2;;2,4688;;;
2735045;01/04/2023 14:58:21;2;;2,4788;;;
2735047;01/04/2023 14:59:21;2;;2,4992;;;
2735049;01/04/2023 15:00:21;3;;2,5432;;;
2735051;01/04/2023 15:01:21;3;;2,6256;;;
2735054;01/04/2023 15:03:21;3;;2,8828;;;
2735056;01/04/2023 15:04:21;3;;3,0244;;;
2735058;01/04/2023 15:05:20;4;;4,4048;;;
2735060;01/04/2023 15:06:21;4;;4,348;;;
2735062;01/04/2023 15:07:20;5;;4,9024;;;
2735064;01/04/2023 15:08:21;4;;4,0672;;;
2735067;01/04/2023 15:10:21;4;;4,2872;;;
2735069;01/04/2023 15:11:21;5;;4,6836;;;
2735071;01/04/2023 15:12:21;4;;4,1716;;;
2735073;01/04/2023 15:13:20;4;;3,646;;;
2735075;01/04/2023 15:14:21;4;;3,8736;;;
2735077;01/04/2023 15:15:21;4;;4,2592;;;
2735080;01/04/2023 15:17:21;4;;3,8456;;;
2735082;01/04/2023 15:18:21;4;;3,6508;;;
2735084;01/04/2023 15:19:21;3;;3,4196;;;
2735086;01/04/2023 15:20:21;3;;3,1044;;;
2735088;01/04/2023 15:21:21;3;;3,4352;;;
2735090;01/04/2023 15:22:21;3;;3,4224;;;
2735093;01/04/2023 15:24:21;3;;3,0948;;;
2735095;01/04/2023 15:25:20;3;;3,1524;;;
2735097;01/04/2023 15:26:21;3;;3,0392;;;
2735099;01/04/2023 15:27:20;3;;3,0872;;;
2735101;01/04/2023 15:28:21;3;;3,2444;;;
2735103;01/04/2023 15:29:20;4;;3,5792;;;
2735106;01/04/2023 15:31:21;3;;3,3552;;;
2735108;01/04/2023 15:32:21;3;;3,0832;;;
2735110;01/04/2023 15:33:21;3;;2,8724;;;
2735112;01/04/2023 15:34:20;3;;2,6796;;;
2735114;01/04/2023 15:35:21;3;;2,914;;;
2735116;01/04/2023 15:36:21;3;;3,0096;;;
2735119;01/04/2023 15:38:21;3;;3,2764;;;
2735121;01/04/2023 15:39:20;4;;4,222;;;
2735123;01/04/2023 15:40:21;4;;3,8408;;;
2735125;01/04/2023 15:41:21;3;;2,8556;;;
2735127;01/04/2023 15:42:21;3;;3,3484;;;
2735129;01/04/2023 15:43:20;3;;3,2968;;;
2735132;01/04/2023 15:45:21;4;;4,4336;;;
2735134;01/04/2023 15:46:21;4;;4,3864;;;
2735136;01/04/2023 15:47:21;4;;4,2104;;;
2735138;01/04/2023 15:48:20;4;;4,3464;;;
2735140;01/04/2023 15:49:21;3;;3,3956;;;
2735142;01/04/2023 15:50:20;4;;3,9248;;;
2735145;01/04/2023 15:52:21;4;;3,9412;;;
2735147;01/04/2023 15:53:21;4;;3,6588;;;
2735149;01/04/2023 15:54:21;4;;3,9148;;;
2735151;01/04/2023 15:55:21;4;;3,7392;;;
2735153;01/04/2023 15:56:21;3;;2,7936;;;
2735155;01/04/2023 15:57:20;2;;2,376;;;
2735158;01/04/2023 15:59:20;3;;2,594;;;
2735160;01/04/2023 16:00:21;2;;2,0592;;;
2735162;01/04/2023 16:01:21;2;;2,2828;;;
2735164;01/04/2023 16:02:21;2;;2,4708;;;
2735166;01/04/2023 16:03:20;3;;3,3216;;;
2735168;01/04/2023 16:04:21;4;;3,6088;;;
2735171;01/04/2023 16:06:21;4;;3,9784;;;
2735173;01/04/2023 16:07:21;4;;4,0552;;;
2735175;01/04/2023 16:08:20;3;;2,8924;;;
2735177;01/04/2023 16:09:21;3;;2,5716;;;
2735179;01/04/2023 16:10:21;2;;2,0416;;;
2735181;01/04/2023 16:11:21;2;;1,9792;;;